sat.trackr.live / text

‹ back to catalog

STARLINK-32160

NORAD 60261 · 2024-131G

PAYLOAD ACTIVE UNKNOWN

§ Identity

Operator
Country
US
Launch date
2024-07-27
Launch site
AFETR
Launch vehicle
Mass (kg)
RCS (m²)

Purposes: comms

External: N2YO · Heavens-Above · Gunter

§ Orbital elements

Epoch: 2026-05-25T03:59:40.900704Z

Period
94.11 min
Inclination
53.1603°
Eccentricity
0.0001201
Mean motion
15.30192937 rev/d
Perigee alt
474.4 km
Apogee alt
476.1 km
Semi-major
6,853.4 km
B*
5.6466e-5
RAAN
57.4760°
Arg perigee
77.7616°
Mean anomaly
282.3519°
Rev number
10,347

§ Raw data

STARLINK-321601 60261U 24131G   26145.16644561  .00001313  00000+0  56466-4 0  99952 60261  53.1603  57.4760 0001201  77.7616 282.3519 15.30192937103477

JSON: /api/v1/satellites/60261 · /tle

For live sub-satellite position, see the globe view (requires WebGL).

§ Visibility from observer

Set your observer location to see the next 7 days of passes ≥ 10°. The values pass through the URL so the page stays shareable.

No JS? Fill the form by hand. The geolocation button needs JavaScript.